FREGAT DEB, 45999

Orbit data source: Space-Track

FREGAT DEB, 45999 is space debris in LEO originally from a launch on Mon, 18 Jul 2011 UTC launched from the Tyuratam Missile And Space Complex (TTMTR). Debris objects in space refer to the collection of defunct objects orbiting the Earth. Examples of debris include non-operational satellites, rocket bodies, and fragments generated from explosions, collisions, or faulty payload assembly.

Loading next visibility...
Identifier
45999, 2011-037HA
Orbit
LEO
Country
Flag of CISCIS
Related business
Manufacturer
Lavochkin
Mission
Spacecraft
Bus & Motor
Unknown
Mass
Unknown
Launch date (UTC)
2011-07-18 (14 years ago)
Launch vehicle
Unknown
Launch site
Tyuratam Missile And Space Complex (TTMTR)
Object type
Payload
Rocket body
Debris
Shape & HBR
Unknown shape, 1.1 m
Radar Cross Section
Small (<0.1 m²)

Expand to show TLE details & history
Last TLE update: 4 days ago

TLE from 4 days ago
0 FREGAT DEB
1 45999U 11037HA  25307.34802421 -.00000486  00000-0 -10774-2 0  9990
2 45999  51.4612  63.1321 2139406 100.4356 284.2877 10.06266448193421
Epoch: 2025-11-03T08:21Z
TLE epoch observation values (Epoch: 2025-11-03T08:21:09.291Z)
Latitude
0.00002°
Longitude
-105.00729°
Altitude
2,616.31 km
Speed
6.684 km/s
True Right ascension
04h 12m 31s
True Declination
0° 00' 00"
Sunlit
Object was in full shadow at epoch
Visualization orbit readout
Latitude
Unknown
Longitude
Unknown
Altitude
Unknown
Speed
Unknown
Apparent Right ascension
Unknown
Apparent Declination
Unknown
Sunlit
N/A
Visualization observer readout
Local Sidereal Time
09:15:49
Azimuth
Unknown
Elevation
Unknown
Doppler factor
Unknown
Orbital elements
Apogee altitude
4,624.027 km
Perigee altitude
746.062 km
Semi-major axis
9,063.181 km
Eccentricity
0.21394
Inclination
51.4612°
RAAN
63.1321°
Arg. of periapsis
100.4356°
True anomaly
259.64461°
Mean anomaly
284.2877°
Eccentric anomaly
272.03756°
Mean motion
2.51549 °/min
Orbital period
143.11 mins
BSTAR
-0.0010774
Loading maneuver chart data...
Computing Atmospheric mass density...
Loading historical data...
Loading historical data...
Loading historical data...
Loading historical data...
Loading historical data...
Loading historical data...
Loading historical data...

Documentation

Showing up to 5 results
|